Flag for Canada Weather past 2 weeks in Richmond Hill, Ontario, Canada

Now
55 °F

Light rain. Overcast.


Feels Like: 55 °F
Forecast: 48 / 63 °F
Wind: No wind

Location: Toronto Buttonville

Current Time: Sep 15, 2014 at 11:45:13 PM

Latest Report: Sep 15, 2014 at 11:00 PM


Visibility: 7 mi

Pressure: 30.05 "Hg

Humidity: 100%

Dew point: 55 °F

Location of Richmond HillLocation

Historic Weather in Richmond Hill — Graph

°F

Richmond Hill temperature yesterday

Maximum temperature yesterday: 57 °F (at 2:00 PM)
Minimum temperature yesterday: 39 °F (at 7:00 AM)
Average temperature yesterday: 50 °F

Past Weeks' High & Low Weather Summary

 TemperatureHumidityPressure
High86 °F (Sep 5, 3:00 PM)100% (Sep 1, 5:00 AM)30.36 "Hg (Sep 1, 5:00 AM)
Low39 °F (Sep 14, 7:00 AM)40% (Sep 6, 5:00 PM)29.52 "Hg (Sep 11, 4:00 AM)
Average63 °F79%30.06 "Hg
* Reported Aug 31 10:00 PM — Sep 15 10:00 PM, Richmond Hill, Weather by CustomWeather, © 2014

Note: Actual official high and low records may vary slightly from our data, if they occured in-between our weather recording intervals... More about our weather records

Advertising

Richmond Hill weather history for previous 24 hours

 ConditionsComfort  
Time TempWeatherWind HumidityBarometerVisibility
10:00 PM
Sep 15
55 °FOvercast.5 mph94%30.06 "Hg7 mi
9:00 PM55 °FLight rain. Overcast.2 mph100%30.07 "Hg8 mi
8:00 PM55 °FLight rain. Overcast.2 mph100%30.07 "Hg8 mi
7:00 PM57 °FLight rain. Overcast.5 mph88%30.08 "Hg12 mi
6:00 PM57 °FLight rain. Overcast.2 mph94%30.09 "Hg10 mi
5:00 PM59 °FLight rain. Overcast.8 mph82%30.09 "Hg10 mi
4:00 PM63 °FLight rain. Mostly cloudy.6 mph64%30.08 "Hg15 mi
3:00 PM63 °FMostly cloudy.6 mph59%30.10 "Hg15 mi
2:00 PM63 °FMostly cloudy.6 mph64%30.11 "Hg15 mi
1:00 PM64 °FMore clouds than sun.10 mph52%30.13 "Hg15 mi
12:00 PM64 °FPartly sunny.8 mph52%30.15 "Hg15 mi
11:00 AM63 °FScattered clouds.12 mph56%30.16 "Hg15 mi
10:00 AM59 °FScattered clouds.6 mph59%30.19 "Hg15 mi
9:00 AM55 °FPassing clouds.5 mph72%30.19 "Hg15 mi
8:00 AM48 °FPassing clouds.No wind100%30.21 "Hg15 mi
7:00 AM45 °FPassing clouds.No wind93%30.21 "Hg15 mi
6:00 AM45 °FPassing clouds.No wind100%30.21 "Hg15 mi
5:00 AM46 °FPassing clouds.No wind93%30.21 "Hg15 mi
4:00 AM48 °FPassing clouds.No wind94%30.20 "Hg15 mi
3:00 AM50 °FOvercast.No wind94%30.21 "Hg15 mi
2:00 AM50 °FOvercast.No wind94%30.21 "Hg15 mi
1:00 AM50 °FPassing clouds.No wind94%30.21 "Hg15 mi
12:00 AM52 °FOvercast.No wind94%30.22 "Hg15 mi
11:00 PM
Sep 14
52 °FOvercast.No wind88%30.22 "Hg15 mi
Weather by CustomWeather, © 2014

See weather overviewHow to use our weather pages